Hermiston, OR

6:28 AM PDT on April 20, 2018 (GMT -0700)
Hermiston Municipal

Weather History for KHRI - March, 2014

Change the Weather History Date:

Wednesday, March 5, 2014

  Actual Average Record
Temperature  
Mean Temperature 58 °F 42 °F  
Max Temperature 69 °F 55 °F 70 °F (1987)
Min Temperature 46 °F 30 °F 8 °F (1955)
Degree Days  
Heating Degree Days 8    
Growing Degree Days 8 (Base 50)    
Moisture  
Dew Point 46 °F    
Average Humidity 75    
Maximum Humidity 96    
Minimum Humidity 42    
Precipitation  
Precipitation 0.13 in 0.03 in 0.52 in (1916)
Month to date precipitation 0.18  
Year to date precipitation 2.46  
Sea Level Pressure  
Sea Level Pressure 29.69 in    
Wind  
Wind Speed 6 mph (South)    
Max Wind Speed 22 mph    
Max Gust Speed 29 mph    
Visibility 10 miles    
Events Rain    
T = Trace of Precipitation, MM = Missing Value Source: NWS Daily Summary

Daily Weather History Graph

Daily Weather History Graph

Search for Another Location

Airport or City:

Astronomy

Mar. 05, 2014 Rise Set
Actual Time 6:28 AM PST 5:49 PM PST
Civil Twilight 5:58 AM PST 6:19 PM PST
Nautical Twilight 5:24 AM PST 6:53 PM PST
Astronomical Twilight 4:49 AM PST 7:28 PM PST
Moon 8:41 AM PST (3/5) 11:20 PM PST (3/5)
Length of Visible Light 12h 20m
Length of Day
11h 21m
Waxing Crescent, 24% of the Moon is Illuminated
Mar 5
Waxing Crescent
Mar 8
First Quarter
Mar 16
Full
Mar 23
Last Quarter
Mar 30
New

Hourly Weather History & Observations

Time (PST) Temp. Windchill Dew Point Humidity Pressure Visibility Wind Dir Wind Speed Gust Speed Precip Events Conditions
12:53 AM 46.0 °F - 42.1 °F 86% 29.88 in 10.0 mi Calm Calm - N/A   Scattered Clouds
1:53 AM 46.0 °F 44.8 °F 41.0 °F 83% 29.83 in 10.0 mi SE 3.5 mph - N/A   Partly Cloudy
2:53 AM 46.0 °F 44.8 °F 42.1 °F 86% 29.82 in 10.0 mi NE 3.5 mph - N/A   Overcast
3:53 AM 46.9 °F - 41.0 °F 80% 29.77 in 10.0 mi SSE 8.1 mph - N/A   Overcast
4:53 AM 48.0 °F - 41.0 °F 77% 29.74 in 10.0 mi SSE 3.5 mph - N/A   Overcast
5:53 AM 46.0 °F - 42.1 °F 86% 29.73 in 10.0 mi Calm Calm - N/A   Overcast
6:53 AM 46.9 °F - 42.1 °F 83% 29.74 in 10.0 mi Calm Calm - N/A   Overcast
7:53 AM 46.9 °F - 43.0 °F 86% 29.75 in 10.0 mi South 5.8 mph - 0.00 in Rain Light Rain
8:53 AM 54.0 °F - 45.0 °F 72% 29.75 in 10.0 mi SW 4.6 mph - 0.00 in   Clear
9:53 AM 52.0 °F - 44.1 °F 74% 29.77 in 10.0 mi North 3.5 mph - N/A   Overcast
10:53 AM 61.0 °F - 46.0 °F 58% 29.76 in 10.0 mi SW 13.8 mph - 0.00 in   Overcast
11:53 AM 63.0 °F - 46.9 °F 56% 29.77 in 10.0 mi SSW 21.9 mph 28.8 mph 0.00 in   Overcast
12:53 PM 63.0 °F - 48.0 °F 58% 29.74 in 10.0 mi SSW 16.1 mph - N/A   Scattered Clouds
1:53 PM 69.1 °F - 45.0 °F 42% 29.68 in 10.0 mi SW 21.9 mph 28.8 mph N/A   Mostly Cloudy
2:53 PM 64.9 °F - 46.9 °F 52% 29.67 in 10.0 mi SSW 11.5 mph - 0.00 in Rain Light Rain
3:53 PM 64.0 °F - 48.9 °F 58% 29.64 in 10.0 mi ESE 4.6 mph - 0.00 in   Mostly Cloudy
4:53 PM 61.0 °F - 48.9 °F 64% 29.59 in 10.0 mi SE 6.9 mph - N/A   Overcast
5:53 PM 59.0 °F - 51.1 °F 75% 29.57 in 10.0 mi SSW 4.6 mph - 0.02 in   Overcast
6:53 PM 59.0 °F - 50.0 °F 72% 29.56 in 10.0 mi SSW 3.5 mph - 0.02 in Rain Light Rain
7:53 PM 55.0 °F - 51.1 °F 86% 29.50 in 10.0 mi East 6.9 mph - 0.02 in Rain Light Rain
8:53 PM 57.0 °F - 50.0 °F 77% 29.49 in 10.0 mi South 3.5 mph - 0.00 in   Overcast
9:53 PM 53.1 °F - 52.0 °F 96% 29.58 in 10.0 mi West 12.7 mph - 0.05 in Rain Light Rain
10:53 PM 53.1 °F - 52.0 °F 96% 29.59 in 10.0 mi SSE 10.4 mph - 0.00 in   Overcast
11:53 PM 53.1 °F - 48.9 °F 86% 29.59 in 10.0 mi SSW 11.5 mph - 0.02 in   Mostly Cloudy